Location: Kelowna
(49.8880°N, 119.4960°W)
Time: 12:50:24
(UTC-08:00)

Envisat - Pass Details

Date: 29 November 2023
Orbit: 762 x 764 km, 98.3° (Epoch: 21 February)

Event Time Altitude Azimuth Distance (km) Brightness Sun altitude
Rises 04:01:56 0° 12° (NNE) 3,243 6.4 -32.9°
Reaches altitude 10° 04:04:15 10° 10° (N) 2,313 5.6 -32.5°
Enters shadow 04:04:25 11° 9° (N) 2,248 5.5 -32.5°
